Location: Alsip
(41.6689°N, 87.7387°W)
Time: 09:04:37
(UTC+00:00)

GEOS 3 Rocket - Pass Details

Date: 26 October 2020
Orbit: 770 x 850 km, 115.0° (Epoch: 03 December)

Event Time Altitude Azimuth Distance (km) Brightness Sun altitude
Exits shadow 02:38:25 16° 264° (W) 2,059 6.1 -41.9°
Drops below altitude 10° 02:40:33 10° 287° (WNW) 2,450 6.7 -42.3°
Sets 02:43:46 0° 307° (NW) 3,401 7.6 -42.8°
